Platteville, WI

1:49 AM CDT on March 30, 2017 (GMT -0500)
Platteville Municipal

Weather History for KPVB - November, 2011

Change the Weather History Date:

Saturday, November 12, 2011

  Actual Average (KDBQ) Record (KDBQ)
Temperature  
Mean Temperature 42 °F -  
Max Temperature 53 °F 42 °F 69 °F (1902)
Min Temperature 32 °F 26 °F 6 °F (1986)
Degree Days  
Heating Degree Days 22    
Moisture  
Dew Point 35 °F    
Average Humidity 75    
Maximum Humidity 93    
Minimum Humidity 54    
Precipitation  
Precipitation 0.00 in - - ()
Sea Level Pressure  
Sea Level Pressure 29.64 in    
Wind  
Wind Speed 9 mph (SSE)    
Max Wind Speed 21 mph    
Max Gust Speed 29 mph    
Visibility 10 miles    
Events      
Averages and records for this station are not official NWS values.
T = Trace of Precipitation, MM = Missing Value Source: NWS Daily Summary

Daily Weather History Graph

Daily Weather History Graph

Search for Another Location

Airport or City:

Trip Planner

Search our weather history database for the weather conditions in past years. The results will help you decide how hot, cold, wet, or windy it might be!

Date:

Astronomy

Nov. 12, 2011 Rise Set
Actual Time 6:49 AM CST 4:41 PM CST
Civil Twilight 6:19 AM CST 5:12 PM CST
Nautical Twilight 5:45 AM CST 5:46 PM CST
Astronomical Twilight 5:11 AM CST 6:19 PM CST
Moon 5:55 PM CST (11/12) 8:34 AM CST (11/12)
Length of Visible Light 10h 53m
Length of Day
9h 52m
Full, 97% of the Moon is Illuminated
Nov 12
Full
Nov 18
Last Quarter
Nov 25
New
Dec 2
First Quarter
Dec 10
Full

Hourly Weather History & Observations

Time (CST) Temp. Windchill Dew Point Humidity Pressure Visibility Wind Dir Wind Speed Gust Speed Precip Events Conditions
12:15 AM 33.8 °F 27.7 °F 30.2 °F 87% 29.70 in 10.0 mi South 6.9 mph - N/A   Clear
12:35 AM 33.8 °F 27.0 °F 30.2 °F 87% 29.70 in 10.0 mi South 8.1 mph - N/A   Clear
12:55 AM 33.8 °F 28.6 °F 30.2 °F 87% 29.70 in 10.0 mi South 5.8 mph - N/A   Clear
1:15 AM 33.8 °F 28.6 °F 30.2 °F 87% 29.69 in 10.0 mi South 5.8 mph - N/A   Clear
1:35 AM 33.8 °F 28.6 °F 30.2 °F 87% 29.69 in 10.0 mi SSE 5.8 mph - N/A   Clear
1:55 AM 32.0 °F 25.6 °F 30.2 °F 93% 29.70 in 10.0 mi SSE 6.9 mph - N/A   Clear
2:15 AM 33.8 °F 27.7 °F 30.2 °F 87% 29.70 in 10.0 mi SSE 6.9 mph - N/A   Clear
2:35 AM 32.0 °F 25.6 °F 30.2 °F 93% 29.70 in 10.0 mi SSE 6.9 mph - N/A   Clear
2:55 AM 32.0 °F 26.4 °F 30.2 °F 93% 29.70 in 10.0 mi SSE 5.8 mph - N/A   Clear
3:15 AM 32.0 °F 24.8 °F 30.2 °F 93% 29.70 in 10.0 mi South 8.1 mph - N/A   Clear
3:55 AM 33.8 °F 27.0 °F 32.0 °F 93% 29.69 in 10.0 mi SSE 8.1 mph - N/A   Clear
4:15 AM 32.0 °F 26.4 °F 30.2 °F 93% 29.69 in 10.0 mi SSE 5.8 mph - N/A   Clear
4:35 AM 32.0 °F 25.6 °F 30.2 °F 93% 29.70 in 10.0 mi SSE 6.9 mph - N/A   Clear
4:55 AM 32.0 °F 25.6 °F 30.2 °F 93% 29.71 in 10.0 mi SSE 6.9 mph - N/A   Clear
5:15 AM 32.0 °F 26.4 °F 30.2 °F 93% 29.70 in 10.0 mi SSE 5.8 mph - N/A   Clear
5:35 AM 32.0 °F 24.2 °F 30.2 °F 93% 29.71 in 10.0 mi SSE 9.2 mph - N/A   Clear
5:55 AM 33.8 °F 27.0 °F 30.2 °F 87% 29.71 in 10.0 mi South 8.1 mph - N/A   Clear
6:15 AM 32.0 °F 24.8 °F 30.2 °F 93% 29.71 in 10.0 mi SSE 8.1 mph - N/A   Clear
7:15 AM 32.0 °F 25.6 °F 30.2 °F 93% 29.70 in 10.0 mi SE 6.9 mph - N/A   Clear
7:35 AM 33.8 °F 26.4 °F 32.0 °F 93% 29.71 in 10.0 mi SE 9.2 mph - N/A   Clear
7:55 AM 33.8 °F 27.0 °F 32.0 °F 93% 29.71 in 10.0 mi SE 8.1 mph - N/A   Clear
8:15 AM 35.6 °F 29.2 °F 32.0 °F 87% 29.71 in 10.0 mi SSE 8.1 mph - N/A   Clear
8:35 AM 35.6 °F 28.0 °F 32.0 °F 87% 29.71 in 10.0 mi SSE 10.4 mph - N/A   Clear
9:15 AM 39.2 °F 31.6 °F 33.8 °F 81% 29.72 in 10.0 mi South 12.7 mph - N/A   Clear
9:35 AM 41.0 °F 35.2 °F 33.8 °F 76% 29.72 in 10.0 mi South 9.2 mph - N/A   Clear
9:55 AM 41.0 °F 34.7 °F 35.6 °F 81% 29.72 in 10.0 mi South 10.4 mph - N/A   Clear
10:15 AM 42.8 °F 36.6 °F 35.6 °F 76% 29.72 in 10.0 mi South 11.5 mph - N/A   Clear
10:35 AM 44.6 °F 39.7 °F 37.4 °F 76% 29.71 in 10.0 mi South 9.2 mph - N/A   Clear
10:55 AM 46.4 °F 41.5 °F 37.4 °F 71% 29.70 in 10.0 mi South 10.4 mph - N/A   Clear
11:15 AM 46.4 °F 40.4 °F 37.4 °F 71% 29.70 in 10.0 mi South 13.8 mph - N/A   Clear
11:35 AM 46.4 °F 41.1 °F 39.2 °F 76% 29.69 in 10.0 mi South 11.5 mph - N/A   Clear
11:55 AM 48.2 °F - 39.2 °F 71% 29.68 in 10.0 mi South 13.8 mph - N/A   Clear
12:15 PM 50.0 °F - 41.0 °F 71% 29.67 in 10.0 mi South 13.8 mph 17.3 mph N/A   Clear
12:35 PM 51.8 °F - 41.0 °F 67% 29.66 in 10.0 mi South 12.7 mph - N/A   Clear
12:55 PM 51.8 °F - 39.2 °F 62% 29.65 in 10.0 mi South 16.1 mph 19.6 mph N/A   Clear
1:15 PM 51.8 °F - 41.0 °F 67% 29.64 in 10.0 mi SSE 13.8 mph - N/A   Clear
1:35 PM 51.8 °F - 39.2 °F 62% 29.62 in 10.0 mi South 12.7 mph - N/A   Clear
1:55 PM 51.8 °F - 39.2 °F 62% 29.61 in 10.0 mi SSE 13.8 mph - N/A   Clear
2:15 PM 53.6 °F - 39.2 °F 58% 29.60 in 10.0 mi SSE 11.5 mph - N/A   Clear
2:35 PM 53.6 °F - 39.2 °F 58% 29.60 in 10.0 mi SSE 8.1 mph - N/A   Clear
2:55 PM 53.6 °F - 39.2 °F 58% 29.59 in 10.0 mi SE 8.1 mph - N/A   Clear
3:15 PM 53.6 °F - 41.0 °F 62% 29.59 in 10.0 mi SSE 10.4 mph - N/A   Clear
3:35 PM 53.6 °F - 39.2 °F 58% 29.58 in 10.0 mi SE 12.7 mph - N/A   Clear
3:55 PM 51.8 °F - 39.2 °F 62% 29.58 in 10.0 mi SE 10.4 mph - N/A   Clear
4:15 PM 50.0 °F - 37.4 °F 62% 29.57 in 10.0 mi SSE 13.8 mph - N/A   Clear
4:35 PM 50.0 °F - 37.4 °F 62% 29.55 in 10.0 mi SE 10.4 mph - N/A   Clear
4:55 PM 50.0 °F - 37.4 °F 62% 29.55 in 10.0 mi SSE 11.5 mph - N/A   Clear
5:15 PM 50.0 °F - 37.4 °F 62% 29.54 in 10.0 mi SE 11.5 mph - N/A   Clear
5:35 PM 50.0 °F - 35.6 °F 58% 29.53 in 10.0 mi SE 12.7 mph - N/A   Clear
5:55 PM 48.2 °F - 35.6 °F 62% 29.52 in 10.0 mi SE 11.5 mph - N/A   Clear
6:15 PM 48.2 °F - 35.6 °F 62% 29.51 in 10.0 mi SSE 12.7 mph - N/A   Clear
6:35 PM 50.0 °F - 37.4 °F 62% 29.52 in 10.0 mi SSE 13.8 mph - N/A   Clear
6:55 PM 50.0 °F - 35.6 °F 58% 29.52 in 10.0 mi South 12.7 mph - N/A   Clear
7:15 PM 50.0 °F - 35.6 °F 58% 29.51 in 10.0 mi SSE 16.1 mph - N/A   Clear
7:35 PM 51.8 °F - 35.6 °F 54% 29.50 in 10.0 mi South 17.3 mph 21.9 mph N/A   Clear
8:15 PM 50.0 °F - 35.6 °F 58% 29.50 in 10.0 mi South 19.6 mph 28.8 mph N/A   Clear
8:35 PM 50.0 °F - 35.6 °F 58% 29.50 in 10.0 mi South 20.7 mph 27.6 mph N/A   Clear
8:55 PM 50.0 °F - 37.4 °F 62% 29.50 in 10.0 mi South 17.3 mph - N/A   Clear
9:15 PM 50.0 °F - 35.6 °F 58% 29.49 in 10.0 mi South 18.4 mph 24.2 mph N/A   Clear
9:35 PM 50.0 °F - 35.6 °F 58% 29.48 in 10.0 mi South 19.6 mph 23.0 mph N/A   Clear
9:55 PM 48.2 °F - 35.6 °F 62% 29.47 in 10.0 mi South 18.4 mph - N/A   Clear
10:15 PM 48.2 °F - 35.6 °F 62% 29.46 in 10.0 mi South 17.3 mph - N/A   Clear
10:35 PM 48.2 °F - 35.6 °F 62% 29.45 in 10.0 mi South 18.4 mph - N/A   Clear
10:55 PM 46.4 °F 39.5 °F 35.6 °F 66% 29.44 in 10.0 mi South 17.3 mph - N/A   Clear
11:15 PM 46.4 °F 39.8 °F 37.4 °F 71% 29.43 in 10.0 mi South 16.1 mph - N/A   Clear
11:35 PM 46.4 °F 39.8 °F 37.4 °F 71% 29.43 in 10.0 mi South 16.1 mph 23.0 mph N/A   Clear
11:55 PM 48.2 °F - 37.4 °F 66% 29.42 in 10.0 mi South 18.4 mph 29.9 mph N/A   Clear